[[{"header":{"parameterUnit":"m.s-1","parameterCategory":1,"la1":30.2991,"la2":30.254,"lo1":-89.0895,"lo2":-89.0444,"dy":0.0017,"dx":0.0017,"nx":28,"ny":28,"refTime":"2025-06-18T03:00:00:Z","depth":0,"parameterNumber":2,"parameterNumberName":"U-component_of_WINDS"},"data":[0,0,0,0,0,0,0,0,0,0,0,0,0,0,0,0,0,0,0,0,0,0,0,0,0,0,0,0,0,0,0,0,0,0,0,0,0,0,0,0,0,0,0,0,0,0,0,0,0,0,0,0,0,0,0,0,0,0,0.0917,0.0917,0,0.0914,0.0914,0.0914,0.0907,0.0907,0.0907,0.0907,0.0904,0.0904,0.0904,0,0,0,0,0,0,0,0,0,0,0,0,0,0.0914,0.0914,0.0917,0.0917,0.0917,0.0914,0.0914,0.0914,0.0907,0.0907,0.0907,0.0907,0.0904,0.0904,0.0904,0,0,0,0,0,0,0,0,0,0,0,0,0,0.0914,0.0915,0.0917,0.0913,0.0913,0.0914,0.0914,0.0914,0.0907,0.0907,0.0907,0.0907,0.0904,0.0904,0.0904,0.0908,0,0,0.0904,0.0904,0,0,0,0,0,0,0,0,0.0914,0.0914,0.0914,0.0913,0.0913,0.0911,0.0912,0.0912,0.0907,0.0909,0.0907,0.0907,0.0906,0.0906,0.0906,0.0908,0.0908,0.0904,0.0904,0.0904,0.0904,0,0,0,0,0,0,0,0.0914,0.0914,0.0916,0.0914,0.0913,0.0911,0.0911,0.0912,0.0909,0.0909,0.0909,0.0909,0.0906,0.0906,0.0906,0.0908,0.0904,0.0904,0.0904,0.0904,0.0912,0.0912,0,0,0,0,0,0,0.0915,0.0914,0.0916,0.0916,0.0913,0.0911,0.0911,0.0912,0.0909,0.0908,0.0909,0.0908,0.0906,0.0906,0.0906,0.091,0.0904,0.0904,0.0904,0.0912,0.0912,0.0912,0,0,0,0,0,0,0.0915,0.0915,0.0916,0.0915,0.0915,0.0911,0.0912,0.0912,0.0912,0.0909,0.0908,0.0909,0.0906,0.0905,0.0907,0.091,0.0904,0.0904,0.0912,0.0912,0.0912,0.0919,0,0,0,0,0,0,0.0915,0.0915,0.0917,0.0915,0.0915,0.0918,0.0913,0.0912,0.0912,0.0911,0.0909,0.0908,0.0905,0.0907,0.0907,0.091,0.0904,0.0911,0.0912,0.0912,0.0919,0.092,0.092,0,0,0,0,0,0.0915,0.0919,0.0917,0.0918,0.0917,0.0918,0.0918,0.0915,0.0912,0.0914,0.0912,0.0908,0.0909,0.0907,0.0908,0.091,0.0911,0.0912,0.0912,0.0918,0.0919,0.092,0,0,0,0,0,0,0.0922,0.0919,0.0917,0.0921,0.092,0.0917,0.092,0.0917,0.0916,0.0916,0.0911,0.0911,0.0913,0.0912,0.091,0.0913,0.091,0.091,0.0914,0.0915,0.0916,0.0917,0.0904,0,0,0,0,0,0.0924,0.0926,0.0923,0.0927,0.0926,0.0923,0.0923,0.0921,0.0919,0.0919,0.0917,0.0915,0.0915,0.0915,0.0915,0.0918,0.0917,0.092,0.0921,0.0921,0.0922,0.0922,0.0923,0.0914,0.0914,0.0914,0,0,0.0929,0.0927,0.0928,0.0928,0.0927,0.0928,0.0923,0.0924,0.0924,0.0919,0.0921,0.0919,0.0917,0.0919,0.092,0.0918,0.0924,0.0922,0.0923,0.0923,0.0923,0.0924,0.0925,0.0914,0.0914,0.0914,0,0,0.0937,0.0937,0.0939,0.0938,0.0937,0.0934,0.0935,0.0932,0.0931,0.0932,0.0928,0.0928,0.0928,0.0926,0.0926,0.0932,0.0929,0.0932,0.0937,0.0937,0.0938,0.0939,0.094,0.0941,0.0932,0.0932,0.0932,0,0.0943,0.0945,0.0941,0.0943,0.0942,0.0937,0.0939,0.0938,0.0936,0.0936,0.0934,0.0933,0.0931,0.0933,0.0934,0.0934,0.0934,0.0932,0.0938,0.0939,0.0939,0.0941,0.0942,0.0933,0.0933,0.0933,0.0933,0,0.0952,0.0953,0.0955,0.0953,0.0953,0.0955,0.0951,0.0951,0.0948,0.0946,0.0946,0.0944,0.0943,0.0943,0.094,0.0943,0.0942,0.0939,0.0935,0.0941,0.0942,0.0943,0.0933,0.0933,0.0933,0.0933,0,0,0.0966,0.0961,0.0962,0.0961,0.0958,0.0958,0.0959,0.0958,0.0958,0.0957,0.0957,0.0956,0.0953,0.0952,0.0949,0.095,0.0954,0.0947,0.0946,0.0948,0.0957,0.0959,0.096,0.0952,0.0952,0.0952,0.0957,0,0.0974,0.0976,0.0972,0.0975,0.0975,0.0969,0.097,0.0968,0.0965,0.0965,0.0962,0.0961,0.0957,0.0957,0.0957,0.0954,0.0956,0.0953,0.0951,0.0951,0.0952,0.096,0.0963,0.0968,0.0957,0.0957,0.0957,0,0.0983,0.0982,0.0985,0.0981,0.0981,0.0982,0.0979,0.0979,0.0976,0.0974,0.0972,0.0969,0.0969,0.0965,0.0964,0.0962,0.0961,0.0959,0.0959,0.0959,0.0955,0.096,0.0969,0.097,0.0958,0.0958,0.0958,0,0.0993,0.0992,0.0993,0.0992,0.0988,0.0988,0.0986,0.0983,0.0982,0.098,0.0979,0.0977,0.0976,0.0974,0.0969,0.0967,0.0969,0.0965,0.0967,0.0967,0.0967,0.0967,0.0976,0.0967,0.0967,0.0967,0.0967,0,0.1002,0.1004,0.0997,0.0998,0.0999,0.0994,0.0996,0.0993,0.099,0.099,0.0984,0.0984,0.0978,0.0977,0.0973,0.0972,0.0972,0.097,0.0969,0.097,0.0971,0.097,0.0969,0.0967,0.0967,0.0967,0.0967,0,0.1013,0.1009,0.101,0.1005,0.1004,0.1005,0.1,0.1,0.0997,0.0997,0.0996,0.0991,0.0989,0.0984,0.0981,0.0978,0.0978,0.0977,0.0979,0.0979,0.0981,0.0981,0.0989,0.099,0.098,0.098,0.098,0,0.1019,0.102,0.1015,0.1015,0.1013,0.1012,0.1011,0.1006,0.1004,0.1,0.1001,0.0998,0.0996,0.0993,0.0989,0.0986,0.0984,0.0987,0.0983,0.0984,0.0983,0.0983,0.0983,0.0988,0.0988,0.0988,0.0988,0,0.103,0.1028,0.1026,0.1024,0.1023,0.1021,0.1018,0.1018,0.1012,0.101,0.1008,0.1007,0.1003,0.1,0.0997,0.0994,0.099,0.0989,0.0989,0.0991,0.0992,0.0991,0.0981,0.0989,0.0989,0.0989,0.0989,0.0989,0.1038,0.1039,0.1035,0.1034,0.1031,0.1029,0.1028,0.1024,0.1023,0.102,0.1016,0.1014,0.101,0.1004,0.1002,0.1,0.0998,0.0998,0.0998,0.0998,0.0999,0.0993,0.0999,0.0999,0.0999,0.0999,0.0999,0,0.1049,0.1046,0.1045,0.1041,0.104,0.1036,0.1032,0.1031,0.103,0.1026,0.1024,0.1021,0.1018,0.1013,0.1009,0.1008,0.1006,0.1008,0.1008,0.1007,0.1001,0.1001,0.1009,0.1009,0.1009,0.1009,0.1009,0.1009,0.1054,0.1054,0.1051,0.105,0.1047,0.1045,0.1043,0.104,0.1037,0.1034,0.1032,0.1029,0.1024,0.102,0.1017,0.1015,0.1014,0.1016,0.1014,0.1008,0.1007,0.1006,0.1006,0.1016,0.1016,0.102,0.102,0.102]},{"header":{"parameterUnit":"m.s-1","parameterCategory":1,"la1":30.2991,"la2":30.254,"lo1":-89.0895,"lo2":-89.0444,"dy":0.0017,"dx":0.0017,"nx":28,"ny":28,"refTime":"2025-06-18T03:00:00:Z","depth":0,"parameterNumber":3,"parameterNumberName":"V-component_of_WINDS"},"data":[0,0,0,0,0,0,0,0,0,0,0,0,0,0,0,0,0,0,0,0,0,0,0,0,0,0,0,0,0,0,0,0,0,0,0,0,0,0,0,0,0,0,0,0,0,0,0,0,0,0,0,0,0,0,0,0,0,0,4.2423,4.2423,0,4.2418,4.2418,4.2418,4.2394,4.2393,4.2393,4.2392,4.2385,4.2386,4.2386,0,0,0,0,0,0,0,0,0,0,0,0,0,4.2411,4.2411,4.2423,4.2423,4.2423,4.2418,4.2418,4.2418,4.2394,4.2393,4.2393,4.2392,4.2385,4.2386,4.2386,0,0,0,0,0,0,0,0,0,0,0,0,0,4.2412,4.2412,4.2423,4.241,4.2409,4.2418,4.2418,4.2418,4.2394,4.2393,4.2392,4.2392,4.2385,4.2386,4.2386,4.2406,0,0,4.2388,4.2388,0,0,0,0,0,0,0,0,4.2412,4.2413,4.2412,4.2411,4.241,4.2406,4.2411,4.2414,4.2394,4.24,4.2392,4.2391,4.2393,4.2393,4.2393,4.2406,4.2406,4.2388,4.2388,4.2388,4.2388,0,0,0,0,0,0,0,4.2412,4.2413,4.2421,4.2412,4.2411,4.2405,4.2404,4.2412,4.2401,4.2399,4.2397,4.2397,4.2392,4.2393,4.2393,4.2405,4.2388,4.2388,4.2389,4.2389,4.2435,4.2436,0,0,0,0,0,0,4.2414,4.2413,4.2421,4.2421,4.2409,4.2406,4.2405,4.2408,4.2401,4.2399,4.2398,4.2396,4.2392,4.2392,4.2393,4.2416,4.2388,4.2389,4.2389,4.2434,4.2435,4.2436,0,0,0,0,0,0,4.2414,4.2415,4.2421,4.2416,4.2417,4.2407,4.241,4.2408,4.2409,4.24,4.2398,4.2401,4.2392,4.2392,4.2403,4.2416,4.2389,4.2389,4.2433,4.2435,4.2436,4.2463,0,0,0,0,0,0,4.2414,4.2415,4.2423,4.2417,4.2417,4.2432,4.2411,4.2409,4.241,4.2408,4.2402,4.24,4.2391,4.2403,4.2404,4.2416,4.239,4.2432,4.2434,4.2436,4.2461,4.2466,4.2469,0,0,0,0,0,4.2413,4.243,4.2423,4.2424,4.2426,4.2433,4.2433,4.2423,4.2411,4.2419,4.2413,4.2401,4.2414,4.2404,4.2405,4.2418,4.2431,4.2433,4.2435,4.246,4.2465,4.2469,0,0,0,0,0,0,4.2436,4.2429,4.2421,4.2436,4.2436,4.2429,4.2438,4.2428,4.243,4.2428,4.2414,4.2413,4.2426,4.2423,4.2412,4.2437,4.2421,4.2423,4.2439,4.2444,4.2447,4.2448,4.239,0,0,0,0,0,4.2443,4.245,4.2443,4.2457,4.2457,4.2448,4.245,4.2442,4.2441,4.244,4.2435,4.2434,4.2438,4.244,4.2444,4.2461,4.246,4.247,4.2474,4.2477,4.2479,4.2489,4.2494,4.2443,4.2443,4.2443,0,0,4.2457,4.2454,4.2459,4.2461,4.246,4.2467,4.2447,4.2455,4.246,4.2441,4.2452,4.2448,4.2446,4.2461,4.2467,4.2458,4.2493,4.248,4.2483,4.2483,4.2492,4.2497,4.2501,4.2445,4.2444,4.2444,0,0,4.2487,4.2485,4.2497,4.2497,4.2495,4.2489,4.2492,4.2487,4.2484,4.2495,4.2481,4.2487,4.2494,4.2493,4.2493,4.2525,4.2513,4.2526,4.2546,4.2556,4.256,4.2563,4.2575,4.2579,4.2528,4.2528,4.2528,0,4.2505,4.2515,4.2504,4.2514,4.2515,4.25,4.2512,4.2511,4.2511,4.2512,4.2503,4.2512,4.251,4.2524,4.2532,4.2533,4.2536,4.2526,4.256,4.2564,4.2567,4.2577,4.2582,4.253,4.253,4.253,4.2529,0,4.2537,4.2544,4.2554,4.2555,4.2558,4.2569,4.256,4.2564,4.2556,4.2552,4.2563,4.256,4.2562,4.2565,4.2557,4.2579,4.2574,4.2563,4.2546,4.2573,4.2583,4.2587,4.2532,4.2532,4.2531,4.2531,0,0,4.2579,4.2576,4.2579,4.258,4.2578,4.2583,4.2594,4.2597,4.2601,4.2602,4.261,4.2617,4.2607,4.2608,4.26,4.2609,4.2634,4.2596,4.2596,4.2604,4.2659,4.2667,4.2672,4.2627,4.2628,4.2628,4.2659,0,4.2608,4.2625,4.2617,4.2636,4.2643,4.2629,4.2638,4.2638,4.2634,4.2639,4.2634,4.264,4.2626,4.2626,4.2634,4.2629,4.2645,4.2627,4.2634,4.2635,4.2635,4.2677,4.2686,4.2715,4.2663,4.2663,4.2664,0,4.2643,4.2646,4.2666,4.2664,4.2666,4.2674,4.2678,4.2683,4.2683,4.2679,4.2681,4.2671,4.2681,4.2665,4.2679,4.2667,4.267,4.2668,4.2669,4.2669,4.2651,4.2678,4.2724,4.2728,4.267,4.2669,4.2669,0,4.2672,4.2681,4.2695,4.2696,4.2693,4.27,4.2699,4.2698,4.2701,4.2704,4.2706,4.2709,4.2711,4.2714,4.2706,4.2695,4.2721,4.2704,4.2718,4.2719,4.2724,4.2724,4.277,4.2726,4.2726,4.2726,4.2726,0,4.2704,4.2717,4.2708,4.2716,4.273,4.2721,4.2735,4.2732,4.2732,4.2739,4.2727,4.2734,4.2723,4.2729,4.2723,4.2736,4.2736,4.2734,4.2732,4.2735,4.2735,4.2736,4.2734,4.2727,4.2727,4.2726,4.2726,0,4.2739,4.2734,4.2747,4.2745,4.2744,4.2755,4.2753,4.276,4.2756,4.2766,4.2767,4.2761,4.2767,4.276,4.2765,4.2761,4.2778,4.2773,4.2779,4.2777,4.2792,4.2791,4.2841,4.2847,4.2799,4.2799,4.28,0,4.276,4.277,4.2769,4.2773,4.2774,4.2781,4.2785,4.2776,4.278,4.2782,4.2789,4.2795,4.2799,4.281,4.2806,4.281,4.2806,4.2823,4.2806,4.2809,4.2806,4.2806,4.2807,4.2826,4.2827,4.2827,4.2827,0,4.2798,4.2795,4.2801,4.2807,4.2811,4.2815,4.2817,4.2822,4.2813,4.2818,4.2826,4.2829,4.2836,4.2842,4.2846,4.2844,4.2835,4.2833,4.2837,4.284,4.2842,4.2841,4.2788,4.2832,4.2831,4.2831,4.2831,4.2831,4.2826,4.2835,4.2836,4.2843,4.2845,4.2848,4.2855,4.2853,4.2859,4.2864,4.2859,4.2868,4.2868,4.2872,4.2872,4.2879,4.2872,4.2877,4.2878,4.288,4.2882,4.2842,4.288,4.288,4.288,4.2879,4.2879,0,4.2864,4.2864,4.2871,4.2876,4.2882,4.2874,4.2876,4.2882,4.289,4.2892,4.2897,4.2906,4.2912,4.2909,4.2914,4.292,4.2916,4.2922,4.2921,4.2921,4.2888,4.2885,4.2925,4.2925,4.2925,4.2925,4.2925,4.2925,4.2884,4.2898,4.2896,4.2911,4.2911,4.292,4.2923,4.2926,4.2927,4.2938,4.2944,4.2942,4.2941,4.2947,4.2952,4.2951,4.2954,4.2961,4.2959,4.2928,4.2923,4.2919,4.2916,4.2962,4.2962,4.2991,4.2991,4.2991]}]]